Time,TemperatureF,DewpointF,PressureIn,WindDirection,WindDirectionDegrees,WindSpeedMPH,WindSpeedGustMPH,Humidity,HourlyPrecipIn,Conditions,Clouds,dailyrainin,SolarRadiationWatts/m^2,SoftwareType,DateUTC
2013-03-19 00:03:00,28.0,28.0,-100.00,SE,128,11.0,22.0,100,0.00,,,0.00,0.000000,,2013-03-19 04:03:00,
2013-03-19 00:34:00,29.0,29.0,-100.00,ESE,121,11.0,24.0,100,0.00,,,0.00,0.000000,,2013-03-19 04:34:00,
2013-03-19 00:43:00,29.0,29.0,-100.00,ESE,121,11.0,24.0,100,0.00,,,0.00,0.000000,,2013-03-19 04:43:00,
2013-03-19 00:53:00,29.0,29.0,-100.00,ESE,121,11.0,24.0,100,0.00,,,0.00,0.000000,,2013-03-19 04:53:00,
2013-03-19 01:02:00,29.0,29.0,-100.00,ESE,121,11.0,24.0,100,0.00,,,0.00,0.000000,,2013-03-19 05:02:00,
2013-03-19 01:33:00,30.0,30.0,-100.00,ESE,122,10.0,20.0,100,0.00,,,0.00,0.000000,,2013-03-19 05:33:00,
2013-03-19 01:43:00,30.0,30.0,-100.00,ESE,122,10.0,20.0,100,0.00,,,0.00,0.000000,,2013-03-19 05:43:00,
2013-03-19 01:52:00,30.0,30.0,-100.00,ESE,122,10.0,20.0,100,0.00,,,0.00,0.000000,,2013-03-19 05:52:00,
2013-03-19 02:03:00,30.0,30.0,-100.00,ESE,122,10.0,20.0,100,0.00,,,0.00,0.000000,,2013-03-19 06:03:00,
2013-03-19 02:32:00,30.0,30.0,-100.00,ESE,115,11.0,18.0,100,0.00,,,0.00,0.000000,,2013-03-19 06:32:00,
2013-03-19 02:42:00,30.0,30.0,-100.00,ESE,115,11.0,18.0,100,0.00,,,0.00,0.000000,,2013-03-19 06:42:00,
2013-03-19 02:53:00,30.0,30.0,-100.00,ESE,115,11.0,18.0,100,0.00,,,0.00,0.000000,,2013-03-19 06:53:00,
2013-03-19 03:03:00,30.0,30.0,-100.00,ESE,115,11.0,18.0,100,0.00,,,0.00,0.000000,,2013-03-19 07:03:00,
2013-03-19 03:32:00,30.0,30.0,-100.00,ESE,112,9.0,17.0,100,0.00,,,0.00,0.000000,,2013-03-19 07:32:00,
2013-03-19 03:42:00,30.0,30.0,-100.00,ESE,112,9.0,17.0,100,0.00,,,0.00,0.000000,,2013-03-19 07:42:00,
2013-03-19 03:53:00,30.0,30.0,-100.00,ESE,112,9.0,17.0,100,0.00,,,0.00,0.000000,,2013-03-19 07:53:00,
2013-03-19 04:03:00,30.0,30.0,-100.00,ESE,112,9.0,17.0,100,0.00,,,0.00,0.000000,,2013-03-19 08:03:00,
2013-03-19 04:33:00,31.0,31.0,-100.00,ESE,120,8.0,14.0,100,0.00,,,0.00,0.000000,,2013-03-19 08:33:00,
2013-03-19 04:43:00,31.0,31.0,-100.00,ESE,120,8.0,14.0,100,0.00,,,0.00,0.000000,,2013-03-19 08:43:00,
2013-03-19 04:53:00,31.0,31.0,-100.00,ESE,120,8.0,14.0,100,0.00,,,0.00,0.000000,,2013-03-19 08:53:00,
2013-03-19 05:03:00,31.0,31.0,-100.00,ESE,120,8.0,14.0,100,0.00,,,0.00,0.000000,,2013-03-19 09:03:00,
2013-03-19 05:33:00,31.0,31.0,-100.00,SE,128,6.0,13.0,100,0.00,,,0.00,0.000000,,2013-03-19 09:33:00,
2013-03-19 05:43:00,31.0,31.0,-100.00,SE,128,6.0,13.0,100,0.00,,,0.00,0.000000,,2013-03-19 09:43:00,
2013-03-19 05:53:00,31.0,31.0,-100.00,SE,128,6.0,13.0,100,0.00,,,0.00,0.000000,,2013-03-19 09:53:00,
2013-03-19 06:04:00,31.0,31.0,-100.00,SE,128,6.0,13.0,100,0.00,,,0.00,0.000000,,2013-03-19 10:04:00,
2013-03-19 06:33:00,31.0,31.0,-100.00,SE,129,6.0,11.0,100,0.00,,,0.00,0.000000,,2013-03-19 10:33:00,
2013-03-19 06:42:00,31.0,31.0,-100.00,SE,129,6.0,11.0,100,0.00,,,0.00,0.000000,,2013-03-19 10:42:00,
2013-03-19 06:53:00,31.0,31.0,-100.00,SE,129,6.0,11.0,100,0.00,,,0.00,0.000000,,2013-03-19 10:53:00,
2013-03-19 07:03:00,31.0,31.0,-100.00,SE,129,6.0,11.0,100,0.00,,,0.00,0.000000,,2013-03-19 11:03:00,
2013-03-19 10:33:00,34.0,34.0,-100.00,WNW,301,3.0,5.0,100,-99.99,,,0.00,232.000000,,2013-03-19 14:33:00,
2013-03-19 10:42:00,34.0,34.0,-100.00,WNW,301,3.0,5.0,100,-99.99,,,0.00,232.000000,,2013-03-19 14:42:00,
2013-03-19 10:53:00,34.0,34.0,-100.00,WNW,301,3.0,5.0,100,-99.99,,,0.00,232.000000,,2013-03-19 14:53:00,
2013-03-19 11:02:00,34.0,34.0,-100.00,WNW,301,3.0,5.0,100,-99.99,,,0.00,232.000000,,2013-03-19 15:02:00,
2013-03-19 11:34:00,38.0,38.0,-100.00,WNW,295,4.0,9.0,100,0.07,,,0.07,477.000000,,2013-03-19 15:34:00,
2013-03-19 11:44:00,38.0,38.0,-100.00,WNW,295,4.0,9.0,100,0.07,,,0.07,477.000000,,2013-03-19 15:44:00,
2013-03-19 11:54:00,38.0,38.0,-100.00,WNW,295,4.0,9.0,100,0.07,,,0.07,477.000000,,2013-03-19 15:54:00,
2013-03-19 12:04:00,38.0,38.0,-100.00,WNW,295,4.0,9.0,100,0.07,,,0.07,477.000000,,2013-03-19 16:04:00,
2013-03-19 12:34:00,45.0,45.0,-100.00,WNW,292,4.0,9.0,100,0.28,,,0.35,438.000000,,2013-03-19 16:34:00,
2013-03-19 12:44:00,45.0,45.0,-100.00,WNW,292,4.0,9.0,100,0.28,,,0.35,438.000000,,2013-03-19 16:44:00,
2013-03-19 12:55:00,45.0,45.0,-100.00,WNW,292,4.0,9.0,100,0.28,,,0.35,438.000000,,2013-03-19 16:55:00,
2013-03-19 13:03:00,45.0,45.0,-100.00,WNW,292,4.0,9.0,100,0.28,,,0.35,438.000000,,2013-03-19 17:03:00,
2013-03-19 13:35:00,44.0,36.0,-100.00,WNW,300,3.0,8.0,72,0.07,,,0.42,502.000000,,2013-03-19 17:35:00,
2013-03-19 13:44:00,44.0,36.0,-100.00,WNW,300,3.0,8.0,72,0.07,,,0.42,502.000000,,2013-03-19 17:44:00,
2013-03-19 13:53:00,44.0,36.0,-100.00,WNW,300,3.0,8.0,72,0.07,,,0.42,502.000000,,2013-03-19 17:53:00,
2013-03-19 14:03:00,44.0,36.0,-100.00,WNW,300,3.0,8.0,72,0.07,,,0.42,502.000000,,2013-03-19 18:03:00,
2013-03-19 14:34:00,47.0,33.0,-100.00,West,270,4.0,9.0,57,0.00,,,0.42,659.000000,,2013-03-19 18:34:00,
2013-03-19 14:44:00,47.0,33.0,-100.00,West,270,4.0,9.0,57,0.00,,,0.42,659.000000,,2013-03-19 18:44:00,
2013-03-19 14:53:00,47.0,33.0,-100.00,West,270,4.0,9.0,57,0.00,,,0.42,659.000000,,2013-03-19 18:53:00,
2013-03-19 15:02:00,47.0,33.0,-100.00,West,270,4.0,9.0,57,0.00,,,0.42,659.000000,,2013-03-19 19:02:00,
2013-03-19 15:33:00,45.0,30.0,-100.00,WSW,244,6.0,11.0,56,0.00,,,0.42,617.000000,,2013-03-19 19:33:00,
2013-03-19 15:43:00,45.0,30.0,-100.00,WSW,244,6.0,11.0,56,0.00,,,0.42,617.000000,,2013-03-19 19:43:00,
2013-03-19 15:53:00,45.0,30.0,-100.00,WSW,244,6.0,11.0,56,0.00,,,0.42,617.000000,,2013-03-19 19:53:00,
2013-03-19 16:03:00,45.0,30.0,-100.00,WSW,244,6.0,11.0,56,0.00,,,0.42,617.000000,,2013-03-19 20:03:00,
2013-03-19 16:33:00,46.0,25.0,-100.00,SW,235,7.0,16.0,44,0.00,,,0.42,582.000000,,2013-03-19 20:33:00,
2013-03-19 16:43:00,46.0,25.0,-100.00,SW,235,7.0,16.0,44,0.00,,,0.42,582.000000,,2013-03-19 20:43:00,
2013-03-19 16:53:00,46.0,25.0,-100.00,SW,235,7.0,16.0,44,0.00,,,0.42,582.000000,,2013-03-19 20:53:00,
2013-03-19 17:02:00,46.0,25.0,-100.00,SW,235,7.0,16.0,44,0.00,,,0.42,582.000000,,2013-03-19 21:02:00,
2013-03-19 17:34:00,43.0,20.0,-100.00,SW,232,7.0,14.0,39,0.00,,,0.42,317.000000,,2013-03-19 21:34:00,
2013-03-19 17:43:00,43.0,20.0,-100.00,SW,232,7.0,14.0,39,0.00,,,0.42,317.000000,,2013-03-19 21:43:00,
2013-03-19 17:53:00,43.0,20.0,-100.00,SW,232,7.0,14.0,39,0.00,,,0.42,317.000000,,2013-03-19 21:53:00,
2013-03-19 18:03:00,43.0,20.0,-100.00,SW,232,7.0,14.0,39,0.00,,,0.42,317.000000,,2013-03-19 22:03:00,
2013-03-19 18:34:00,42.0,21.0,-100.00,SW,235,6.0,12.0,42,0.00,,,0.42,175.000000,,2013-03-19 22:34:00,
2013-03-19 18:44:00,42.0,21.0,-100.00,SW,235,6.0,12.0,42,0.00,,,0.42,175.000000,,2013-03-19 22:44:00,
2013-03-19 18:54:00,42.0,21.0,-100.00,SW,235,6.0,12.0,42,0.00,,,0.42,175.000000,,2013-03-19 22:54:00,
2013-03-19 19:03:00,42.0,21.0,-100.00,SW,235,6.0,12.0,42,0.00,,,0.42,175.000000,,2013-03-19 23:03:00,
2013-03-19 19:33:00,36.0,14.0,-100.00,WSW,239,7.0,21.0,40,0.00,,,0.42,49.000000,,2013-03-19 23:33:00,
2013-03-19 19:43:00,36.0,14.0,-100.00,WSW,239,7.0,21.0,40,0.00,,,0.42,49.000000,,2013-03-19 23:43:00,
2013-03-19 19:53:00,36.0,14.0,-100.00,WSW,239,7.0,21.0,40,0.00,,,0.42,49.000000,,2013-03-19 23:53:00,
2013-03-19 20:03:00,36.0,14.0,-100.00,WSW,239,7.0,21.0,40,0.00,,,0.42,49.000000,,2013-03-20 00:03:00,
2013-03-19 20:33:00,31.0,21.0,-100.00,NW,326,6.0,13.0,65,0.00,,,-99.99,2.000000,,2013-03-20 00:33:00,
2013-03-19 20:43:00,31.0,21.0,-100.00,NW,326,6.0,13.0,65,0.00,,,-99.99,2.000000,,2013-03-20 00:43:00,
2013-03-19 20:52:00,31.0,21.0,-100.00,NW,326,6.0,13.0,65,0.00,,,-99.99,2.000000,,2013-03-20 00:52:00,
2013-03-19 21:03:00,31.0,21.0,-100.00,NW,326,6.0,13.0,65,0.00,,,-99.99,2.000000,,2013-03-20 01:03:00,
2013-03-19 21:32:00,29.0,17.0,-100.00,WNW,294,5.0,12.0,60,0.00,,,0.42,0.000000,,2013-03-20 01:32:00,
2013-03-19 21:43:00,29.0,17.0,-100.00,WNW,294,5.0,12.0,60,0.00,,,0.42,0.000000,,2013-03-20 01:43:00,
2013-03-19 21:53:00,29.0,17.0,-100.00,WNW,294,5.0,12.0,60,0.00,,,0.42,0.000000,,2013-03-20 01:53:00,
2013-03-19 22:02:00,29.0,17.0,-100.00,WNW,294,5.0,12.0,60,0.00,,,0.42,0.000000,,2013-03-20 02:02:00,
2013-03-19 22:32:00,28.0,17.0,-100.00,NNW,328,5.0,11.0,64,0.00,,,0.42,0.000000,,2013-03-20 02:32:00,
2013-03-19 22:43:00,28.0,17.0,-100.00,NNW,328,5.0,11.0,64,0.00,,,0.42,0.000000,,2013-03-20 02:43:00,
2013-03-19 22:53:00,28.0,17.0,-100.00,NNW,328,5.0,11.0,64,0.00,,,0.42,0.000000,,2013-03-20 02:53:00,
2013-03-19 23:02:00,28.0,17.0,-100.00,NNW,328,5.0,11.0,64,0.00,,,0.42,0.000000,,2013-03-20 03:02:00,
2013-03-19 23:34:00,28.0,19.0,-100.00,North,357,5.0,12.0,68,0.00,,,0.42,0.000000,,2013-03-20 03:34:00,
2013-03-19 23:43:00,28.0,19.0,-100.00,North,357,5.0,12.0,68,0.00,,,0.42,0.000000,,2013-03-20 03:43:00,
2013-03-19 23:53:00,28.0,19.0,-100.00,North,357,5.0,12.0,68,0.00,,,0.42,0.000000,,2013-03-20 03:53:00,